This is the latest recevied weather packets stored in our database for station/object WI0K. If no packets are shown the sender has not sent any weather packets the latest 10 day(s).
| Time | Temp. | Humidity | Pressure | Rain* | Wind** | Luminosity | Snow |
|---|---|---|---|---|---|---|---|
| 1777667200 | 15° C | 25% | 1020.1 hPa | 0 mm | - | 979 W/m² | - |
| 1777666899 | 15° C | 26% | 1020.1 hPa | 0 mm | - | 966 W/m² | - |
| 1777666598 | 15° C | 27% | 1020.2 hPa | 0 mm | - | 955 W/m² | - |
| 1777666297 | 15° C | 26% | 1020.1 hPa | 0 mm | - | 999 W/m² | - |
| 1777665997 | 15.56° C | 25% | 1020.2 hPa | 0 mm | - | 987 W/m² | - |
| 1777665947 | 15° C | 28% | 1020.2 hPa | 0 mm | - | 999 W/m² | - |
| 1777665696 | 15° C | 28% | 1020.2 hPa | 0 mm | - | 999 W/m² | - |
| 1777665395 | 15° C | 28% | 1020.2 hPa | 0 mm | - | 999 W/m² | - |
| 1777665346 | 15° C | 27% | 1020.2 hPa | 0 mm | - | 799 W/m² | - |
| 1777665095 | 15° C | 27% | 1020.2 hPa | 0 mm | - | 799 W/m² | - |
| 1777664794 | 14.44° C | 28% | 1020.2 hPa | 0 mm | - | 999 W/m² | - |
| 1777664745 | 14.44° C | 28% | 1020.2 hPa | 0 mm | - | 999 W/m² | - |
| 1777664493 | 14.44° C | 28% | 1020.2 hPa | 0 mm | - | 999 W/m² | - |
| 1777664193 | 13.89° C | 27% | 1020.2 hPa | 0 mm | - | 999 W/m² | - |
| 1777663892 | 13.89° C | 25% | 1020.2 hPa | 0 mm | - | 999 W/m² | - |
| 1777663591 | 13.89° C | 30% | 1020.4 hPa | 0 mm | - | 999 W/m² | - |
| 1777663291 | 13.33° C | 28% | 1020.3 hPa | 0 mm | - | 999 W/m² | - |
| 1777662990 | 13.89° C | 28% | 1020.3 hPa | 0 mm | - | 198 W/m² | - |
| 1777662689 | 13.89° C | 31% | 1020.3 hPa | 0 mm | - | 611 W/m² | - |
| 1777662388 | 13.89° C | 28% | 832.9 hPa | 0 mm | - | 999 W/m² | - |
| 1777662088 | 13.33° C | 28% | 1020.3 hPa | 0 mm | - | 999 W/m² | - |
| 1777661787 | 13.89° C | 28% | 833.1 hPa | 0 mm | - | 999 W/m² | - |
| 1777661486 | 13.89° C | 29% | 833.2 hPa | 0 mm | - | 999 W/m² | - |
| 1777661186 | 13.33° C | 31% | 833.2 hPa | 0 mm | - | 999 W/m² | - |
| 1777660885 | 13.33° C | 30% | 833.2 hPa | 0 mm | - | 999 W/m² | - |
* Rain latest hour (hover to see other rain measurements)
** Current wind speed in m/s (hover to see current wind gust speed)